Content
SEND FEEDBACK

Daily
Averages
Monthly
Summary
United States of America

BOX ELDER, SOUTH DAKOTA


Home > North America > United States > South Dakota
Elevation: 3170 feet     Latitude: 44 09N     Longitude: 103 06W

WEATHER
 
SELECT A DAY
Number of Records: 209,773;   Date Range: 1/1/95 - 12/17/14
 
SHARE

PRINT THIS DATA

[ ← Previous Day ]
WEATHER ALMANAC - MARCH 12, 2014
[ Next Day → ]
[ °C ]   °F
Weather ElementAverageHighLow
Temperature39.4 °F51.6 °F (3:58 pm)26.2 °F (3:58 am)
Dewpoint23.5 °F27.3 °F (7:58 pm)17.1 °F (6:58 am)
Humidity55 %81 % (2:58 am)35 % (3:58 pm)
Barometer30.19 in30.30 in (1:58 am)30.06 in (11:58 pm)
Wind Speed12.5 mph26.5 mph (11:58 am)
Wind Gust34.5 mph (1:58 pm)
Weather ElementAverage
Visibility10 mi
Wind DirectionWNW (293.9 °)

Weather ElementTotal
Precipitation---
Heating Degree Days26.1 (Base 65)
Averaged from 23 records on March 12, 2014
WEATHER CONDITIONS BREAKOUT
WIND DIRECTION BREAKOUT
WEATHER BY HOUR - MARCH 12, 2014
[ °C ]   °F
Local TimeTemperatureDewpointHumidityBarometerVisibilityWind DirectionWind SpeedGust SpeedPrecipitationEventsConditions
1:58 AM29.5 °F24.1 °F80 %30.30 in10.0 miWest (280°)10.4 mphPartly Cloudy
2:58 AM27.9 °F22.6 °F81 %30.30 in10.0 miWest (270°)9.2 mphPartly Cloudy
3:58 AM26.2 °F20.3 °F78 %30.26 in10.0 miWest (270°)10.4 mphClear
4:58 AM28.0 °F19.0 °F69 %30.27 in10.0 miWest (280°)10.4 mphClear
5:58 AM28.4 °F17.8 °F64 %30.25 in10.0 miWest (260°)10.4 mphClear
6:58 AM28.4 °F17.1 °F63 %30.26 in10.0 miWSW (250°)9.2 mphClear
7:58 AM29.8 °F17.8 °F61 %30.26 in10.0 miWest (260°)5.8 mphClear
8:58 AM36.3 °F22.6 °F58 %30.25 in10.0 miWest (260°)5.8 mphClear
9:58 AM42.1 °F24.3 °F49 %30.24 in10.0 miNW (310°)5.8 mphClear
10:58 AM45.1 °F25.9 °F47 %30.21 in10.0 miNNW (330°)17.3 mphClear
11:58 AM47.1 °F25.3 °F43 %30.20 in10.0 miNNW (330°)26.5 mphClear
12:58 PM48.4 °F25.9 °F42 %30.19 in10.0 miNNW (330°)24.2 mph31.1 mphClear
1:58 PM50.9 °F26.4 °F39 %30.16 in10.0 miNNW (330°)23.0 mph34.5 mphClear
2:58 PM51.1 °F24.8 °F36 %30.15 in10.0 miNNW (330°)25.3 mph32.2 mphClear
3:58 PM51.6 °F24.6 °F35 %30.15 in10.0 miNNW (330°)19.6 mphClear
4:58 PM51.4 °F25.2 °F36 %30.13 in10.0 miNNW (340°)17.3 mphClear
5:58 PM50.9 °F27.1 °F40 %30.13 in10.0 miNNW (330°)10.4 mphClear
6:58 PM48.2 °F26.8 °F43 %30.13 in10.0 miNorth (350°)8.1 mphClear
7:58 PM37.9 °F27.3 °F66 %30.15 in10.0 miWNW (290°)8.1 mphClear
8:58 PM36.3 °F24.6 °F63 %30.13 in10.0 miWest (270°)9.2 mphClear
9:58 PM37.8 °F24.8 °F60 %30.10 in10.0 miSW (230°)5.8 mphClear
10:58 PM38.7 °F22.5 °F52 %30.08 in10.0 miWest (260°)8.1 mphClear
11:58 PM34.9 °F22.8 °F61 %30.06 in10.0 miWest (270°)8.1 mphClear
Hourly data recorded from KRCA, located miles away from Box Elder, South Dakota







STORIES FROM OUR PARTNERS